Погода в Новом

Россия / Республика Саха (Якутия)     62°35′06″N   135°31′39″E
темп.,
°C
ветер,
м/с
пор.,
м/с
влажн.,
%
обл.,
%
осадки,
мм/ч
давл.,
гПа
погр.,
м
1 марта, пн
пн100:00−25юз2296100 0.0 102245
03:00−25юз2596100 0.1 1022163
06:00−27зюз2597100 0.0 1023222
09:00−27зюз2495100 0.1 1024307
12:00−26зюз2492100 0.1 1024498
15:00−25зюз2390100 0.2 1023675
18:00−27ююз1198100 0.1 102519
21:00−28ююз1198100 0.1 102519
2 марта, вт
вт200:00−30юз119997 0.0 102519
03:00−31юз119998 0.1 102519
06:00−32з1199100 0.0 102519
09:00−30з1197100 0.1 1024123
12:00−27зсз1290100 0.0 1024462
15:00−26зсз1290100 0.1 1023563
18:00−28сз0099100 0.1 102419
21:00−28ююз0198100 0.2 102419
3 марта, ср
ср300:00−29юз0098100 0.1 102419
03:00−29юз0098100 0.1 102319
06:00−29зюз0198100 0.1 102219
09:00−28з0195100 0.1 1021194
12:00−26з1188100 0.1 1019558
15:00−26зсз1285100 0.1 1018739
18:00−28сз1198100 0.1 101819
21:00−29зюз1199100 0.1 101719
4 марта, чт
чт400:00−29з1199100 0.1 101619
03:00−30з1199100 0.1 101621
06:00−31з1299100 0.1 101627
09:00−30зсз2397100 0.1 1016287
12:00−28з2391100 0.1 1017571
15:00−28зсз2389100 0.1 1017716
18:00−30з2398100 0.1 1019102
21:00−31з2698100 0.1 1020193
5 марта, пт
пт500:00−31з2598100 0.1 1020219
03:00−33з2598100 0.1 1020235
06:00−34з2598100 0.1 1021217
09:00−34з2496100 0.1 1021251
12:00−31зсз2392100 0.0 1021381
15:00−30з2393100 0.1 1021490
18:00−31з2298100 0.1 102272
21:00−32зюз1398100 0.1 102298